Zurück zum Katalog

ATLAS 5 CENTAUR DEB

LostHEO
NORAD 44660·DEBRIS·🇺🇸 United States

Gestartet Oct 17, 2018 von Cape Canaveral Space Force Station

Loading…

Nächste Überflüge (nächste 24 Stunden)

TLE

VeraltetSource: Space-Track

Epoche: Nov 22, 2025, 07:18 UTC

1 44660U 18079W   25326.30417619 -.00000094  00000-0  00000-0 0  9998
2 44660  12.9023  40.4823 4824392 315.9080  14.5411  1.84826058 28567

Verfolge ATLAS 5 CENTAUR DEB in Echtzeit mit AllMySat

Download on the App Store